SCP
0 0 0 0 0 0 0 0 0 0 0 0 0 0 0 0 0 0 1 1 1 1 1 2 3 3 3 2 1 1 1 1
0 0 0 0 0 0 0 0 0 0 0 0 0 1 0 0 0 1 1 1 2 2 2 2 3 2 2 1 1 1 1 0
0 0 0 0 0 0 0 0 0 0 0 0 1 1 0 0 1 1 1 2 2 2 2 2 3 2 1 1 1 1 1 0
0 0 0 0 -0 -0 0 0 0 0 0 0 1 1 0 1 2 2 3 3 2 2 2 2 2 1 0 0 0 1 0 0
0 0 0 -0 -0 0 0 0 0 -0 -0 0 1 1 1 2 2 3 3 2 2 2 2 1 1 0 0 0 0 0 0 0
0 0 -0 -0 -0 0 0 -0 0 0 0 1 1 1 2 3 3 2 2 2 2 2 1 1 0 0 0 0 0 0 0 0
-0 -0 -0 -0 -0 0 0 -0 0 0 0 1 1 1 2 3 3 2 2 1 1 1 0 0 0 0 0 0 0 0 0 0
0 0 -0 -0 0 -0 0 0 0 0 1 1 1 1 2 3 3 1 1 0 0 0 0 0 0 0 0 0 0 0 0 0
0 -0 0 -0 -0 0 0 0 0 0 1 1 1 1 2 1 1 0 0 0 0 0 0 0 0 0 0 0 0 0 0 0
-0 -0 0 -0 0 0 0 0 0 0 1 1 1 1 1 0 0 0 0 0 0 0 0 0 0 0 0 0 0 0 0 0
0 0 0 -0 0 0 0 0 0 0 0 0 0 0 0 0 0 0 0 0 0 0 0 0 0 0 0 0 0 0 0 0
-0 0 -0 0 0 0 0 0 0 0 0 0 0 0 0 0 0 0 0 0 0 0 0 0 0 0 0 0 0 0 0 0
0 -0 0 0 0 0 0 0 0 0 0 0 0 0 0 0 0 0 0 0 0 0 0 0 0 0 0 0 0 0 0 0
-0 0 0 0 0 0 0 0 0 0 0 0 0 0 0 0 0 0 0 0 0 0 0 0 0 0 -0 -0 -0 -0 -0 0
0 0 0 0 0 0 0 0 0 0 0 0 0 0 0 0 0 0 0 0 -0 0 0 0 0 0 -0 -0 -0 -0 0 0
0 0 0 0 0 -0 0 0 0 0 0 0 0 0 0 0 0 0 0 0 0 0 0 0 -0 -0 -0 -0 -0 0 0 0
0 0 0 0 0 0 0 0 0 0 0 0 0 0 0 0 0 0 0 0 0 0 0 0 0 -0 -0 0 0 0 0 0
0 0 0 0 0 0 0 0 0 0 0 0 0 0 0 0 0 0 0 0 0 0 0 0 0 0 0 0 0 0 0 0
0 0 0 0 0 0 0 0 0 0 0 0 0 0 0 0 0 0 0 0 0 0 0 0 0 0 0 0 0 0 0 0
0 0 0 0 0 0 0 0 0 0 0 0 0 0 0 0 0 0 0 0 0 0 0 0 0 0 0 0 0 0 0 0
Wind_Speed_500mb
60 60 61 52 40 42 53 61 62 59 56 56 56 59 58 59 64 70 65 59 60 56 51 54 53 52 45 40 38 39 39 37
54 51 42 33 36 41 54 68 55 56 55 58 60 59 58 62 67 64 61 55 52 51 54 53 50 47 39 37 37 38 38 37
49 45 38 40 41 51 60 56 51 47 52 58 63 62 63 69 61 57 53 50 49 52 52 50 49 43 40 40 41 41 38 36
55 44 42 47 51 61 64 59 47 46 51 54 58 62 63 62 57 52 53 54 52 51 51 54 53 45 45 42 40 41 35 33
59 48 45 57 67 77 67 67 57 56 56 49 50 54 66 62 59 59 55 50 49 48 52 50 52 49 44 42 35 30 29 28
49 57 75 76 60 72 73 70 55 54 45 49 55 57 69 68 63 56 54 56 53 56 56 56 49 48 44 39 34 30 26 24
68 69 63 63 59 61 74 62 49 51 45 52 60 72 81 71 66 64 59 62 61 63 59 54 49 48 41 36 30 26 24 22
69 70 68 61 50 54 71 70 56 48 38 55 63 76 74 74 74 73 72 70 68 60 58 53 47 41 35 31 28 24 21 21
68 65 70 57 49 42 52 66 55 44 37 50 67 65 69 70 76 73 77 74 68 64 57 48 42 34 29 27 25 23 23 25
74 70 62 48 45 40 60 53 40 34 48 51 60 66 70 75 81 83 74 71 64 59 54 46 35 30 27 26 25 25 25 24
71 69 63 61 43 49 49 40 37 38 49 55 63 69 74 89 82 74 72 65 61 54 43 37 35 31 30 29 27 24 23 29
85 69 46 52 62 60 37 45 50 47 63 74 78 95 90 74 67 70 66 60 53 42 36 36 36 35 32 31 29 28 27 36
76 75 76 78 60 48 52 76 67 61 74 80 88 86 82 80 76 64 55 44 34 32 32 34 38 37 32 28 28 30 33 35
91 28 37 41 48 60 68 69 88 72 86 86 89 87 79 75 71 62 48 40 35 31 27 28 35 30 31 29 28 28 30 35
47 60 68 67 76 74 64 74 78 76 84 79 80 79 77 72 61 57 61 52 42 34 30 31 30 35 32 29 29 29 27 32
45 55 68 65 68 67 70 77 78 84 74 77 77 76 69 62 60 62 57 53 46 41 38 36 34 34 31 28 27 28 29 27
49 59 49 55 67 61 61 65 76 78 76 73 72 66 58 57 63 59 56 51 47 49 46 41 37 36 34 33 30 30 30 31
55 60 59 63 59 59 63 68 67 65 66 69 68 60 61 60 61 58 58 52 49 50 51 51 45 41 39 38 35 36 34 32
50 54 55 60 60 58 61 59 65 67 63 60 57 60 57 57 55 57 56 55 48 59 59 53 43 45 43 40 39 39 39 37
48 53 59 59 57 52 57 56 57 60 60 54 53 54 53 54 53 56 62 56 64 73 63 46 47 42 40 40 39 39 36 34
Wind_Direction_500mb
303 300 292 294 289 295 296 293 291 274 264 252 241 241 244 237 237 237 232 229 228 228 226 220 218 215 205 212 209 200 202 207
301 301 301 298 300 309 313 299 281 271 269 257 239 235 237 230 234 231 222 222 220 224 212 210 206 196 199 207 203 199 205 205
297 297 312 304 303 310 315 304 283 281 279 260 237 228 234 228 222 216 214 215 208 200 202 198 191 192 201 194 194 195 198 198
291 283 302 300 315 314 313 307 296 289 284 259 241 227 225 210 203 199 192 188 192 199 198 187 190 188 188 185 188 187 193 204
288 269 289 308 312 313 305 306 296 294 280 248 224 210 203 189 184 180 185 190 183 182 187 186 183 174 174 175 182 186 187 190
299 286 291 302 293 299 311 303 290 289 263 227 208 189 183 175 175 180 177 172 177 180 174 170 172 166 170 172 176 185 192 204
291 290 294 293 281 289 309 296 278 284 244 215 195 186 175 172 173 170 173 172 169 165 167 166 167 164 171 178 189 197 208 219
287 289 287 289 280 283 301 302 282 267 235 209 186 182 176 173 171 169 165 163 158 159 159 161 164 172 178 187 197 203 207 204
292 287 286 288 280 263 276 289 256 239 217 186 181 177 176 175 168 164 160 158 157 157 161 163 167 176 184 190 193 194 190 185
298 292 290 278 267 273 277 269 237 216 190 173 178 182 179 169 163 152 158 156 157 158 160 159 165 173 177 181 183 180 176 176
297 292 285 278 272 282 281 232 208 180 170 173 176 173 166 152 145 151 152 156 157 156 159 161 165 167 171 170 169 169 176 177
301 294 283 261 263 271 255 212 184 166 153 154 154 147 143 144 149 152 154 158 158 159 161 163 163 165 168 166 163 160 153 158
300 279 264 257 255 230 203 177 169 153 148 140 142 145 145 150 151 153 152 156 164 164 164 169 170 164 165 166 163 166 166 166
309 302 243 221 184 173 169 167 170 160 149 149 149 145 147 149 151 147 146 138 132 135 147 161 155 162 153 154 157 163 171 176
40 100 113 134 145 151 156 155 159 156 149 151 147 148 150 151 146 144 136 131 131 135 133 135 143 147 153 154 152 148 149 159
85 115 113 116 128 135 139 142 146 150 150 151 150 150 150 148 148 146 143 139 138 131 129 133 140 145 151 155 161 157 153 154
101 108 105 118 129 135 141 143 147 149 148 150 150 149 150 151 151 151 151 147 145 137 135 134 135 137 137 136 137 141 149 160
106 110 112 119 127 136 141 143 142 142 146 151 153 153 153 154 157 157 152 151 145 140 137 132 134 136 135 135 132 137 136 143
100 109 114 116 122 132 139 144 147 150 150 155 157 156 157 159 159 155 158 150 141 138 135 136 137 133 130 132 134 134 135 136
103 109 119 121 129 139 145 149 150 152 152 156 158 160 162 162 158 160 158 152 141 139 138 130 136 127 132 129 131 130 133 135
Wind_Speed_850mb
60 60 61 52 40 42 53 61 62 59 56 56 56 59 58 59 64 70 65 59 60 56 51 54 53 52 45 40 38 39 39 37
54 51 42 33 36 41 54 68 55 56 55 58 60 59 58 62 67 64 61 55 52 51 54 53 50 47 39 37 37 38 38 37
49 45 38 40 41 51 60 56 51 47 52 58 63 62 63 69 61 57 53 50 49 52 52 50 49 43 40 40 41 41 38 36
55 44 42 47 51 61 64 59 47 46 51 54 58 62 63 62 57 52 53 54 52 51 51 54 53 45 45 42 40 41 35 33
59 48 45 57 67 77 67 67 57 56 56 49 50 54 66 62 59 59 55 50 49 48 52 50 52 49 44 42 35 30 29 28
49 57 75 76 60 72 73 70 55 54 45 49 55 57 69 68 63 56 54 56 53 56 56 56 49 48 44 39 34 30 26 24
68 69 63 63 59 61 74 62 49 51 45 52 60 72 81 71 66 64 59 62 61 63 59 54 49 48 41 36 30 26 24 22
69 70 68 61 50 54 71 70 56 48 38 55 63 76 74 74 74 73 72 70 68 60 58 53 47 41 35 31 28 24 21 21
68 65 70 57 49 42 52 66 55 44 37 50 67 65 69 70 76 73 77 74 68 64 57 48 42 34 29 27 25 23 23 25
74 70 62 48 45 40 60 53 40 34 48 51 60 66 70 75 81 83 74 71 64 59 54 46 35 30 27 26 25 25 25 24
71 69 63 61 43 49 49 40 37 38 49 55 63 69 74 89 82 74 72 65 61 54 43 37 35 31 30 29 27 24 23 29
85 69 46 52 62 60 37 45 50 47 63 74 78 95 90 74 67 70 66 60 53 42 36 36 36 35 32 31 29 28 27 36
76 75 76 78 60 48 52 76 67 61 74 80 88 86 82 80 76 64 55 44 34 32 32 34 38 37 32 28 28 30 33 35
91 28 37 41 48 60 68 69 88 72 86 86 89 87 79 75 71 62 48 40 35 31 27 28 35 30 31 29 28 28 30 35
47 60 68 67 76 74 64 74 78 76 84 79 80 79 77 72 61 57 61 52 42 34 30 31 30 35 32 29 29 29 27 32
45 55 68 65 68 67 70 77 78 84 74 77 77 76 69 62 60 62 57 53 46 41 38 36 34 34 31 28 27 28 29 27
49 59 49 55 67 61 61 65 76 78 76 73 72 66 58 57 63 59 56 51 47 49 46 41 37 36 34 33 30 30 30 31
55 60 59 63 59 59 63 68 67 65 66 69 68 60 61 60 61 58 58 52 49 50 51 51 45 41 39 38 35 36 34 32
50 54 55 60 60 58 61 59 65 67 63 60 57 60 57 57 55 57 56 55 48 59 59 53 43 45 43 40 39 39 39 37
48 53 59 59 57 52 57 56 57 60 60 54 53 54 53 54 53 56 62 56 64 73 63 46 47 42 40 40 39 39 36 34
Wind_Direction_850mb
303 300 292 294 289 295 296 293 291 274 264 252 241 241 244 237 237 237 232 229 228 228 226 220 218 215 205 212 209 200 202 207
301 301 301 298 300 309 313 299 281 271 269 257 239 235 237 230 234 231 222 222 220 224 212 210 206 196 199 207 203 199 205 205
297 297 312 304 303 310 315 304 283 281 279 260 237 228 234 228 222 216 214 215 208 200 202 198 191 192 201 194 194 195 198 198
291 283 302 300 315 314 313 307 296 289 284 259 241 227 225 210 203 199 192 188 192 199 198 187 190 188 188 185 188 187 193 204
288 269 289 308 312 313 305 306 296 294 280 248 224 210 203 189 184 180 185 190 183 182 187 186 183 174 174 175 182 186 187 190
299 286 291 302 293 299 311 303 290 289 263 227 208 189 183 175 175 180 177 172 177 180 174 170 172 166 170 172 176 185 192 204
291 290 294 293 281 289 309 296 278 284 244 215 195 186 175 172 173 170 173 172 169 165 167 166 167 164 171 178 189 197 208 219
287 289 287 289 280 283 301 302 282 267 235 209 186 182 176 173 171 169 165 163 158 159 159 161 164 172 178 187 197 203 207 204
292 287 286 288 280 263 276 289 256 239 217 186 181 177 176 175 168 164 160 158 157 157 161 163 167 176 184 190 193 194 190 185
298 292 290 278 267 273 277 269 237 216 190 173 178 182 179 169 163 152 158 156 157 158 160 159 165 173 177 181 183 180 176 176
297 292 285 278 272 282 281 232 208 180 170 173 176 173 166 152 145 151 152 156 157 156 159 161 165 167 171 170 169 169 176 177
301 294 283 261 263 271 255 212 184 166 153 154 154 147 143 144 149 152 154 158 158 159 161 163 163 165 168 166 163 160 153 158
300 279 264 257 255 230 203 177 169 153 148 140 142 145 145 150 151 153 152 156 164 164 164 169 170 164 165 166 163 166 166 166
309 302 243 221 184 173 169 167 170 160 149 149 149 145 147 149 151 147 146 138 132 135 147 161 155 162 153 154 157 163 171 176
40 100 113 134 145 151 156 155 159 156 149 151 147 148 150 151 146 144 136 131 131 135 133 135 143 147 153 154 152 148 149 159
85 115 113 116 128 135 139 142 146 150 150 151 150 150 150 148 148 146 143 139 138 131 129 133 140 145 151 155 161 157 153 154
101 108 105 118 129 135 141 143 147 149 148 150 150 149 150 151 151 151 151 147 145 137 135 134 135 137 137 136 137 141 149 160
106 110 112 119 127 136 141 143 142 142 146 151 153 153 153 154 157 157 152 151 145 140 137 132 134 136 135 135 132 137 136 143
100 109 114 116 122 132 139 144 147 150 150 155 157 156 157 159 159 155 158 150 141 138 135 136 137 133 130 132 134 134 135 136
103 109 119 121 129 139 145 149 150 152 152 156 158 160 162 162 158 160 158 152 141 139 138 130 136 127 132 129 131 130 133 135